Weather History for Deadhorse, AK

Change the Weather History Date:

Sunday, May 26, 2013

  Actual Average Record
Temperature  
Mean Temperature 30 °F -  
Max Temperature 39 °F 30 °F 46 °F (2008)
Min Temperature 24 °F 21 °F 15 °F (2000)
Degree Days  
Heating Degree Days 34    
Moisture  
Dew Point 28 °F    
Average Humidity 93    
Maximum Humidity 100    
Minimum Humidity 86    
Precipitation  
Precipitation 0.00 in - - ()
Sea Level Pressure  
Sea Level Pressure 29.94 in    
Wind  
Wind Speed 8 mph (East)    
Max Wind Speed 20 mph    
Max Gust Speed -    
Visibility 7 miles    
Events Fog    
Averages and records for this station are not official NWS values.
T = Trace of Precipitation, MM = Missing Value Source: NWS Daily Summary

Daily Weather History Graph

Daily Weather History Graph

Search for Another Location

Airport:

Trip Planner

Search our weather history database for the weather conditions in past years. The results will help you decide how hot, cold, wet, or windy it might be!

Date:

Astronomy

Dec. 31, 1969 Rise Set
Actual Time Sun does not rise Sun does not rise
Civil Twilight Sun does not rise Sun does not rise
Nautical Twilight Sun does not rise Sun does not rise
Astronomical Twilight Sun does not rise Sun does not rise
Moon No Moon Rise No Moon Set
Length of Visible Light 24h 00m
Length of Day
24h 00m
Waning Gibbous, 96% of the Moon is Illuminated
May 26
Waning Gibbous
May 31
Last Quarter
Jun 8
New
Jun 16
First Quarter
Jun 23
Full

Hourly Weather History & Observations

Time (AKDT) Temp. Windchill Dew Point Humidity Pressure Visibility Wind Dir Wind Speed Gust Speed Precip Events Conditions
12:53 AM 28.0 °F 20.8 °F 27.0 °F 96% 29.99 in 10.0 mi East 6.9 mph - N/A   Partly Cloudy
1:53 AM 27.0 °F 20.5 °F 26.1 °F 96% 29.99 in 10.0 mi ENE 5.8 mph - N/A   Partly Cloudy
2:08 AM 26.6 °F 19.1 °F 26.6 °F 100% 29.98 in 10.0 mi ENE 6.9 mph - N/A   Scattered Clouds
2:41 AM 26.6 °F 19.1 °F 24.8 °F 93% 29.98 in 2.0 mi East 6.9 mph - N/A   Scattered Clouds
2:51 AM 26.6 °F 20.0 °F 24.8 °F 93% 29.97 in 0.5 mi ENE 5.8 mph - N/A Fog Light Freezing Fog
2:53 AM 26.1 °F 18.4 °F 25.0 °F 96% 29.98 in 0.5 mi ENE 6.9 mph - N/A Fog Light Freezing Fog
3:04 AM 26.6 °F 19.1 °F 26.6 °F 100% 29.97 in 0.2 mi ENE 6.9 mph - N/A Fog Light Freezing Fog
3:25 AM 26.6 °F 19.1 °F 26.6 °F 100% 29.97 in 0.2 mi ENE 6.9 mph - N/A Fog Light Freezing Fog
3:28 AM 26.6 °F 19.1 °F 26.6 °F 100% 29.97 in 0.8 mi ENE 6.9 mph - N/A   Mostly Cloudy
3:53 AM 26.1 °F 17.6 °F 25.0 °F 96% 29.97 in 0.2 mi East 8.1 mph - N/A Fog Light Freezing Fog
4:07 AM 26.6 °F 18.2 °F 24.8 °F 93% 29.96 in 0.5 mi East 8.1 mph - N/A Fog Light Freezing Fog
4:19 AM 26.6 °F 19.1 °F 24.8 °F 93% 29.96 in 1.2 mi East 6.9 mph - N/A   Mostly Cloudy
4:53 AM 25.0 °F 18.1 °F 24.1 °F 96% 29.96 in 1.5 mi East 5.8 mph - N/A   Overcast
5:53 AM 25.0 °F 18.1 °F 25.0 °F 100% 29.95 in 1.5 mi East 5.8 mph - N/A   Mostly Cloudy
5:55 AM 24.8 °F 17.9 °F 24.8 °F 100% 29.94 in 3.0 mi East 5.8 mph - N/A   Mostly Cloudy
6:05 AM 26.6 °F 19.1 °F 24.8 °F 93% 29.94 in 3.0 mi East 6.9 mph - N/A   Scattered Clouds
6:53 AM 27.0 °F 21.6 °F 25.0 °F 92% 29.94 in 10.0 mi East 4.6 mph - N/A   Partly Cloudy
7:53 AM 28.9 °F 21.1 °F 27.0 °F 92% 29.92 in 10.0 mi East 8.1 mph - N/A   Partly Cloudy
8:53 AM 30.9 °F 26.2 °F 28.9 °F 92% 29.92 in 10.0 mi ENE 4.6 mph - N/A   Partly Cloudy
9:53 AM 32.0 °F - 30.9 °F 96% 29.91 in 10.0 mi Calm Calm - N/A   Scattered Clouds
10:53 AM 35.1 °F - 32.0 °F 89% 29.91 in 10.0 mi Calm Calm - N/A   Scattered Clouds
11:53 AM 36.0 °F 28.0 °F 32.0 °F 86% 29.90 in 10.0 mi East 11.5 mph - N/A   Scattered Clouds
12:53 PM 35.1 °F 27.4 °F 32.0 °F 89% 29.89 in 10.0 mi East 10.4 mph - N/A   Scattered Clouds
1:53 PM 35.1 °F 27.4 °F 32.0 °F 89% 29.88 in 10.0 mi East 10.4 mph - N/A   Mostly Cloudy
2:53 PM 35.1 °F 27.9 °F 32.0 °F 89% 29.88 in 10.0 mi East 9.2 mph - N/A   Mostly Cloudy
3:53 PM 36.0 °F 29.0 °F 33.1 °F 89% 29.87 in 10.0 mi ESE 9.2 mph - N/A   Mostly Cloudy
4:53 PM 36.0 °F 31.1 °F 33.1 °F 89% 29.87 in 10.0 mi East 5.8 mph - 0.00 in   Mostly Cloudy
5:53 PM 37.0 °F 31.6 °F 33.1 °F 86% 29.88 in 10.0 mi WSW 6.9 mph - N/A   Mostly Cloudy
6:53 PM 36.0 °F 28.0 °F 32.0 °F 86% 29.88 in 10.0 mi West 11.5 mph - N/A   Partly Cloudy
7:53 PM 35.1 °F 24.1 °F 32.0 °F 89% 29.90 in 10.0 mi West 19.6 mph - N/A   Overcast
8:53 PM 34.0 °F 23.0 °F 32.0 °F 92% 29.92 in 10.0 mi West 18.4 mph - N/A   Overcast
9:35 PM 33.8 °F 24.8 °F 30.2 °F 87% 29.94 in 10.0 mi WSW 12.7 mph - N/A   Overcast
9:53 PM 33.1 °F 23.4 °F 30.9 °F 92% 29.95 in 10.0 mi WSW 13.8 mph - N/A   Overcast
10:53 PM 33.1 °F 23.4 °F 30.9 °F 92% 29.97 in 10.0 mi WSW 13.8 mph - N/A   Overcast
11:53 PM 33.1 °F 23.0 °F 30.9 °F 92% 30.00 in 10.0 mi WSW 15.0 mph - N/A   Overcast